Regional Weather Roundup
Issued by NWS

Home | Current Version | Previous Version | Text Only | Print | Product List | Glossary On
Versions: 1 2 3 4 5 6 7 8 9 10 11 12 13 14 15 16 17 18 19 20 21 22 23 24 25 26 27 28 29 30 31 32 33 34 35 36 37 38 39 40 41 42 43 44 45 46 47 48 49 50
000
ASUS43 KLMK 012202
RWRKY
KENTUCKY REGIONAL WEATHER ROUNDUP
NATIONAL WEATHER SERVICE LOUISVILLE KY
600 PM EDT FRI AUG 01 2014

NOTE "FAIR" INDICATES FEW OR NO CLOUDS BELOW 12,000 FEET
WITH NO SIGNIFICANT WEATHER AND/OR OBSTRUCTIONS TO VISIBILITY.

KYZ001>023-026-027-061>063-070>075-012300-
WESTERN AND SOUTH CENTRAL KENTUCKY

CITY           SKY/WX    TMP DP  RH WIND       PRES   REMARKS
PADUCAH        MOSUNNY   87  62  43 CALM      30.02F
HENDERSON      SUNNY    N/A N/A N/A MISG        N/A
OWENSBORO      MOSUNNY   85  59  41 NE7       30.03F
HOPKINSVILLE   MOSUNNY   87  54  31 NW5       30.01F
BOWLING GREEN  SUNNY     86  52  30 NE8       30.02F
GLASGOW        SUNNY     86  52  30 E6        30.03S
$$

KYZ024-025-028>034-038-045-046-053-012300-
NORTH CENTRAL KENTUCKY

CITY           SKY/WX    TMP DP  RH WIND       PRES   REMARKS
LOUISVILLE/SDF MOSUNNY   85  54  34 CALM      30.03F
LOUISVILLE/LOU SUNNY     85  53  33 E6        30.03F
FORT KNOX      SUNNY     83  57  41 N5        30.03F
$$

KYZ035>037-039>044-047>052-055>060-089>105-012300-
NORTHEAST KENTUCKY

CITY           SKY/WX    TMP DP  RH WIND       PRES   REMARKS
LEXINGTON      MOSUNNY   86  58  38 CALM      30.05F
COVINGTON      MOSUNNY   84  57  39 NE3       30.05F
FRANKFORT      CLOUDY    85  56  37 VRB3      30.04F
$$

KYZ054-064>069-076>088-106>120-012300-
SOUTHEAST KENTUCKY

CITY           SKY/WX    TMP DP  RH WIND       PRES   REMARKS
JACKSON        MOSUNNY   79  61  53 CALM      30.06F
LONDON         PTSUNNY   82  61  48 CALM      30.05F
SOMERSET       NOT AVBL
MIDDLESBORO    PTSUNNY   80  65  61 NE5       30.06S
MONTICELLO     CLEAR     86  65  49 VRB5      30.06F
$$



USA.gov is the U.S. government's official web portal to all federal, state and local government web resources and services.